Location: Newark
(44.3681°N, 100.3364°W)
Time: 06:23:12
(UTC+00:00)

Explorer 7 - Pass Details

Date: 20 February 2020
Orbit: 485 x 679 km, 50.3° (Epoch: 08 April)

Event Time Altitude Azimuth Distance (km) Brightness Sun altitude
Rises 17:42:51 0° 189° (S) 2,972 11.4 32.3°
Reaches altitude 10° 17:46:06 10° 167° (SSE) 2,034 11.2 32.5°
Maximum altitude 17:48:45 15° 132° (SE) 1,698 10.5 32.7°
Drops below altitude 10° 17:51:20 10° 97° (E) 1,978 10.1 32.9°
Sets 17:54:25 0° 74° (ENE) 2,842 10.5 33.0°
